Overview Statistics Trail Chart Weather Telemetry Raw packets
 

This is the latest recevied weather packets stored in our database for station/object K0QED. If no packets are shown the sender has not sent any weather packets the latest 10 day(s).

<< 107 108 109 110 111 112 113 >>
Time Temp. Humidity Pressure Rain* Wind** Luminosity Snow
1787815204 12.22° C 83% 1033.5 hPa 0 mm - 0 W/m² -
1787814899 12.22° C 83% 1033.1 hPa 0 mm - 0 W/m² -
1787814599 12.78° C 82% 1033.5 hPa 0 mm - 0 W/m² -
1787814293 12.78° C 81% 1033.6 hPa 0 mm - 0 W/m² -
1787813993 12.78° C 80% 1033.4 hPa 0 mm - 0 W/m² -
1787813689 13.33° C 80% 1033.2 hPa 0 mm - 0 W/m² -
1787813384 13.33° C 80% 1033.4 hPa 0 mm - 0 W/m² -
1787813080 13.89° C 78% 1033.4 hPa 0 mm - 0 W/m² -
1787812775 13.89° C 78% 1033.6 hPa 0 mm - 0 W/m² -
1787812471 13.89° C 77% 1033.4 hPa 0 mm - 0 W/m² -
1787812171 13.89° C 77% 1033.6 hPa 0 mm - 0 W/m² -
1787811866 13.89° C 76% 1033.4 hPa 0 mm - 0 W/m² -
1787811560 14.44° C 76% 1033.4 hPa 0 mm - 0 W/m² -
1787811255 14.44° C 75% 1033.4 hPa 0 mm - 0 W/m² -
1787810950 14.44° C 75% 1033.4 hPa 0 mm - 0 W/m² -
1787810646 14.44° C 75% 1033.9 hPa 0 mm - 0 W/m² -
1787810344 14.44° C 74% 1033.5 hPa 0 mm - 0 W/m² -
1787810040 14.44° C 74% 1033.4 hPa 0 mm - 0 W/m² -
1787809735 14.44° C 74% 1033.6 hPa 0 mm - 0 W/m² -
1787809430 14.44° C 74% 1033.7 hPa 0 mm - 0 W/m² -
1787809126 14.44° C 76% 1033.7 hPa 0 mm - 0 W/m² -
1787808823 13.89° C 78% 1033.4 hPa 0 mm - 0 W/m² -
1787808522 13.89° C 78% 1033.5 hPa 0 mm - 0 W/m² -
1787808216 13.89° C 79% 1033.4 hPa 0 mm - 0 W/m² -
1787807914 13.89° C 79% 1033.5 hPa 0 mm - 0 W/m² -

* Rain latest hour (hover to see other rain measurements)
** Current wind speed in m/s (hover to see current wind gust speed)